OMA686 OERK-OOMS

Flight info

Callsign OMA686
Flight time 1h 43m
Altitude 35000
Route RESAL T533 RAPMA DCT KUVSO DCT KATIT DCT MIDGU M717 PUTSO N685 LAKLU G216 MCT
Aircraft B38M/M-SDE1FGHILORVWXY/HB1

Departure

Time 2026-04-28 09:59
Airport King Khalid International Airport (OERK)

Arrival

Time 2026-04-28 11:42
Airport Muscat International Airport (OOMS)
Time Latitude Longitude Altitude Speed Heading
2026-04-28 08:51 24.94485 46.71176 2062 ft 0 kts 240°
2026-04-28 09:33 24.94491 46.71187 2046 ft 4 kts 236°
2026-04-28 09:34 24.94508 46.71210 2044 ft 4 kts 224°
2026-04-28 09:34 24.94529 46.71228 2049 ft 4 kts 210°
2026-04-28 09:34 24.94553 46.71240 2051 ft 4 kts 193°
2026-04-28 09:34 24.94580 46.71243 2048 ft 4 kts 174°
2026-04-28 09:35 24.94605 46.71236 2047 ft 4 kts 153°
2026-04-28 09:35 24.94613 46.71231 2047 ft 0 kts 150°
2026-04-28 09:38 24.94601 46.71238 2048 ft 6 kts 150°
2026-04-28 09:38 24.94569 46.71259 2049 ft 1 kts 150°
2026-04-28 09:39 24.94532 46.71282 2049 ft 12 kts 150°
2026-04-28 09:39 24.94432 46.71345 2046 ft 19 kts 150°
2026-04-28 09:39 24.94304 46.71426 2046 ft 21 kts 149°
2026-04-28 09:39 24.94214 46.71496 2046 ft 19 kts 119°
2026-04-28 09:40 24.94261 46.71643 2048 ft 23 kts 60°
2026-04-28 09:40 24.94328 46.71772 2050 ft 16 kts 60°
2026-04-28 09:40 24.94385 46.71880 2045 ft 15 kts 60°
2026-04-28 09:40 24.94446 46.71997 2046 ft 15 kts 60°
2026-04-28 09:41 24.94481 46.72064 2042 ft 0 kts 57°
2026-04-28 09:56 24.94492 46.72084 2047 ft 6 kts 59°
2026-04-28 09:56 24.94518 46.72133 2045 ft 9 kts 59°
2026-04-28 09:57 24.94542 46.72170 2041 ft 4 kts 40°
2026-04-28 09:57 24.94564 46.72173 2040 ft 3 kts 349°
2026-04-28 09:57 24.94586 46.72162 2040 ft 4 kts 328°
2026-04-28 09:57 24.94592 46.72158 2042 ft 0 kts 328°
2026-04-28 09:58 24.94689 46.72096 2045 ft 48 kts 330°
2026-04-28 09:58 24.95185 46.71783 2043 ft 113 kts 330°
2026-04-28 09:58 24.96032 46.71246 2043 ft 166 kts 330°
2026-04-28 09:58 24.97118 46.70585 2316 ft 188 kts 329°
2026-04-28 09:59 24.98309 46.69898 3001 ft 198 kts 335°
2026-04-28 09:59 24.99602 46.69342 3753 ft 203 kts 339°
2026-04-28 09:59 25.01033 46.68791 4039 ft 231 kts 339°
2026-04-28 09:59 25.02613 46.68187 4579 ft 247 kts 339°
2026-04-28 10:00 25.04260 46.67554 5297 ft 254 kts 338°
2026-04-28 10:00 25.05954 46.66891 6061 ft 262 kts 337°
2026-04-28 10:00 25.07693 46.66204 6796 ft 268 kts 337°
2026-04-28 10:00 25.09561 46.65873 7550 ft 277 kts
2026-04-28 10:01 25.11442 46.66347 8339 ft 284 kts 15°
2026-04-28 10:01 25.13346 46.67017 9146 ft 289 kts 16°
2026-04-28 10:01 25.15283 46.67720 9904 ft 296 kts 18°
2026-04-28 10:01 25.17080 46.68865 10642 ft 301 kts 42°
2026-04-28 10:02 25.18349 46.70677 11321 ft 305 kts 66°
2026-04-28 10:02 25.18910 46.72913 12052 ft 302 kts 89°
2026-04-28 10:02 25.18993 46.75293 12508 ft 318 kts 93°
2026-04-28 10:02 25.19034 46.77814 12874 ft 338 kts 93°
2026-04-28 10:03 25.19060 46.80486 13231 ft 358 kts 94°
2026-04-28 10:03 25.19070 46.82340 13422 ft 371 kts 94°
2026-04-28 10:03 25.18984 46.86222 13882 ft 388 kts 104°
2026-04-28 10:03 25.18128 46.89003 14496 ft 381 kts 122°
2026-04-28 10:04 25.16882 46.91617 15063 ft 388 kts 123°
2026-04-28 10:04 25.16031 46.93374 15443 ft 391 kts 123°
2026-04-28 10:04 25.14727 46.96032 16076 ft 395 kts 123°
2026-04-28 10:04 25.13397 46.98712 16616 ft 400 kts 124°
2026-04-28 10:05 25.12042 47.01427 17166 ft 406 kts 124°
2026-04-28 10:05 25.10668 47.04170 17763 ft 410 kts 123°
2026-04-28 10:05 25.09295 47.06907 18274 ft 415 kts 123°
2026-04-28 10:05 25.07886 47.09713 18701 ft 420 kts 123°
2026-04-28 10:06 25.06465 47.12543 19220 ft 423 kts 124°
2026-04-28 10:06 25.05026 47.15406 19721 ft 426 kts 124°
2026-04-28 10:06 25.03583 47.18274 20218 ft 429 kts 124°
2026-04-28 10:06 25.02128 47.21166 20675 ft 433 kts 124°
2026-04-28 10:07 25.00676 47.24048 21144 ft 436 kts 124°
2026-04-28 10:07 24.99199 47.26980 21630 ft 439 kts 124°
2026-04-28 10:07 24.97707 47.29941 22091 ft 442 kts 125°
2026-04-28 10:07 24.96203 47.32921 22540 ft 445 kts 125°
2026-04-28 10:08 24.94687 47.35925 22924 ft 451 kts 125°
2026-04-28 10:08 24.93148 47.38962 23328 ft 453 kts 127°
2026-04-28 10:08 24.91256 47.41679 23741 ft 441 kts 142°
2026-04-28 10:08 24.89093 47.44034 24074 ft 444 kts 142°
2026-04-28 10:09 24.86874 47.46430 24425 ft 446 kts 143°
2026-04-28 10:09 24.84640 47.48812 24799 ft 448 kts 143°
2026-04-28 10:09 24.82379 47.51201 25154 ft 451 kts 143°
2026-04-28 10:09 24.80106 47.53596 25494 ft 453 kts 143°
2026-04-28 10:10 24.77838 47.55981 25787 ft 458 kts 143°
2026-04-28 10:10 24.75522 47.58416 26125 ft 460 kts 143°
2026-04-28 10:10 24.73197 47.60861 26489 ft 462 kts 143°
2026-04-28 10:10 24.70861 47.63312 26826 ft 465 kts 143°
2026-04-28 10:11 24.68512 47.65777 27162 ft 467 kts 143°
2026-04-28 10:11 24.66155 47.68250 27486 ft 470 kts 143°
2026-04-28 10:11 24.63781 47.70739 27815 ft 472 kts 143°
2026-04-28 10:11 24.61424 47.73208 28091 ft 475 kts 143°
2026-04-28 10:12 24.59021 47.75725 28360 ft 478 kts 143°
2026-04-28 10:12 24.56572 47.78222 28685 ft 475 kts 149°
2026-04-28 10:12 24.53806 47.80103 28923 ft 463 kts 163°
2026-04-28 10:12 24.50858 47.81569 29155 ft 465 kts 163°
2026-04-28 10:13 24.47891 47.83021 29444 ft 467 kts 164°
2026-04-28 10:13 24.44938 47.84438 29733 ft 468 kts 164°
2026-04-28 10:13 24.41935 47.85859 30000 ft 470 kts 165°
2026-04-28 10:13 24.38926 47.87274 30228 ft 472 kts 165°
2026-04-28 10:14 24.35896 47.88695 30412 ft 475 kts 165°
2026-04-28 10:14 24.32843 47.90126 30632 ft 477 kts 165°
2026-04-28 10:14 24.29823 47.91541 30820 ft 479 kts 165°
2026-04-28 10:14 24.26737 47.92985 31020 ft 481 kts 165°
2026-04-28 10:15 24.23638 47.94436 31260 ft 482 kts 165°
2026-04-28 10:15 24.20545 47.95882 31506 ft 483 kts 165°
2026-04-28 10:15 24.17443 47.97332 31747 ft 484 kts 165°
2026-04-28 10:15 24.14374 47.98765 31979 ft 485 kts 165°
2026-04-28 10:16 24.11262 48.00219 32220 ft 486 kts 165°
2026-04-28 10:16 24.08146 48.01673 32460 ft 487 kts 165°
2026-04-28 10:16 24.05013 48.03134 32700 ft 488 kts 165°
2026-04-28 10:16 24.01885 48.04593 32921 ft 489 kts 165°
2026-04-28 10:17 23.98745 48.06056 33138 ft 490 kts 165°
2026-04-28 10:17 23.95641 48.07501 33360 ft 491 kts 165°
2026-04-28 10:17 23.92489 48.08968 33583 ft 492 kts 165°
2026-04-28 10:17 23.89327 48.10439 33803 ft 493 kts 165°
2026-04-28 10:18 23.86160 48.11911 33997 ft 493 kts 165°
2026-04-28 10:18 23.83001 48.13379 34220 ft 493 kts 164°
2026-04-28 10:18 23.79844 48.14846 34471 ft 492 kts 164°
2026-04-28 10:18 23.76735 48.16289 34702 ft 491 kts 164°
2026-04-28 10:19 23.70440 48.19209 34778 ft 488 kts 164°
2026-04-28 10:19 23.64225 48.22089 34785 ft 488 kts 164°
2026-04-28 10:20 23.57958 48.24992 34777 ft 489 kts 164°
2026-04-28 10:20 23.51690 48.27890 34772 ft 488 kts 164°
2026-04-28 10:21 23.45493 48.30855 34760 ft 494 kts 156°
2026-04-28 10:21 23.42674 48.33073 34762 ft 505 kts 142°
2026-04-28 10:21 23.40360 48.36008 34764 ft 516 kts 127°
2026-04-28 10:22 23.38679 48.39490 34763 ft 524 kts 112°
2026-04-28 10:22 23.37835 48.43352 34757 ft 528 kts 95°
2026-04-28 10:22 23.37547 48.51373 34762 ft 531 kts 94°
2026-04-28 10:23 23.37204 48.59367 34764 ft 532 kts 93°
2026-04-28 10:23 23.36871 48.67418 34763 ft 532 kts 93°
2026-04-28 10:24 23.36533 48.75466 34760 ft 532 kts 93°
2026-04-28 10:24 23.36194 48.83470 34760 ft 532 kts 93°
2026-04-28 10:25 23.35848 48.91525 34753 ft 531 kts 93°
2026-04-28 10:25 23.35500 48.99551 34755 ft 530 kts 93°
2026-04-28 10:26 23.35012 49.07542 34747 ft 528 kts 100°
2026-04-28 10:26 23.33920 49.15401 34753 ft 528 kts 100°
2026-04-28 10:27 23.32788 49.23307 34753 ft 528 kts 100°
2026-04-28 10:27 23.31649 49.31212 34755 ft 528 kts 100°
2026-04-28 10:28 23.30506 49.39123 34755 ft 529 kts 100°
2026-04-28 10:29 23.28790 49.50942 34751 ft 527 kts 100°
2026-04-28 10:29 23.27648 49.58767 34749 ft 526 kts 100°
2026-04-28 10:30 23.26494 49.66653 34753 ft 526 kts 100°
2026-04-28 10:30 23.25344 49.74485 34755 ft 526 kts 100°
2026-04-28 10:31 23.24183 49.82361 34754 ft 527 kts 100°
2026-04-28 10:31 23.23016 49.90244 34752 ft 527 kts 100°
2026-04-28 10:32 23.21849 49.98106 34751 ft 526 kts 100°
2026-04-28 10:32 23.20687 50.05909 34751 ft 525 kts 100°
2026-04-28 10:33 23.19517 50.13733 34751 ft 524 kts 100°
2026-04-28 10:33 23.18341 50.21569 34754 ft 524 kts 100°
2026-04-28 10:34 23.17169 50.29355 34751 ft 524 kts 100°
2026-04-28 10:34 23.15987 50.37178 34751 ft 524 kts 100°
2026-04-28 10:35 23.14801 50.45001 34755 ft 524 kts 100°
2026-04-28 10:35 23.13616 50.52789 34751 ft 524 kts 100°
2026-04-28 10:36 23.12422 50.60613 34751 ft 522 kts 100°
2026-04-28 10:36 23.11230 50.68396 34750 ft 522 kts 100°
2026-04-28 10:37 23.10035 50.76176 34751 ft 521 kts 100°
2026-04-28 10:37 23.08841 50.83918 34754 ft 521 kts 100°
2026-04-28 10:38 23.07637 50.91701 34752 ft 522 kts 100°
2026-04-28 10:38 23.06435 50.99446 34749 ft 522 kts 100°
2026-04-28 10:39 23.05225 51.07217 34745 ft 522 kts 100°
2026-04-28 10:39 23.04007 51.15013 34758 ft 520 kts 100°
2026-04-28 10:40 23.02802 51.22694 34743 ft 519 kts 100°
2026-04-28 10:40 23.01586 51.30427 34748 ft 519 kts 100°
2026-04-28 10:41 23.00367 51.38154 34744 ft 520 kts 100°
2026-04-28 10:41 22.99141 51.45901 34753 ft 521 kts 100°
2026-04-28 10:42 22.97910 51.53653 34742 ft 521 kts 100°
2026-04-28 10:42 22.96682 51.61357 34745 ft 521 kts 100°
2026-04-28 10:43 22.95442 51.69117 34744 ft 521 kts 100°
2026-04-28 10:43 22.94195 51.76889 34747 ft 521 kts 100°
2026-04-28 10:44 22.92954 51.84603 34748 ft 521 kts 100°
2026-04-28 10:44 22.91700 51.92371 34744 ft 522 kts 100°
2026-04-28 10:45 22.90450 52.00092 34743 ft 522 kts 100°
2026-04-28 10:45 22.89189 52.07856 34740 ft 522 kts 100°
2026-04-28 10:46 22.87925 52.15615 34745 ft 522 kts 100°
2026-04-28 10:46 22.86665 52.23330 34738 ft 522 kts 100°
2026-04-28 10:47 22.85398 52.31070 34741 ft 520 kts 100°
2026-04-28 10:47 22.84130 52.38786 34738 ft 520 kts 100°
2026-04-28 10:48 22.82855 52.46521 34735 ft 520 kts 100°
2026-04-28 10:48 22.81895 52.54247 34744 ft 520 kts 97°
2026-04-28 10:49 22.80963 52.62022 34737 ft 519 kts 97°
2026-04-28 10:49 22.80025 52.69749 34737 ft 519 kts 97°
2026-04-28 10:50 22.79239 52.76207 34737 ft 519 kts 97°
2026-04-28 10:50 22.78135 52.85239 34741 ft 520 kts 97°
2026-04-28 10:51 22.77336 52.91744 34734 ft 518 kts 97°
2026-04-28 10:51 22.76387 52.99447 34735 ft 517 kts 97°
2026-04-28 10:52 22.75430 53.07176 34734 ft 516 kts 97°
2026-04-28 10:52 22.74477 53.14853 34738 ft 516 kts 97°
2026-04-28 10:53 22.73511 53.22593 34743 ft 516 kts 97°
2026-04-28 10:53 22.72552 53.30258 34740 ft 517 kts 97°
2026-04-28 10:54 22.71580 53.37987 34735 ft 517 kts 97°
2026-04-28 10:54 22.70605 53.45714 34742 ft 517 kts 97°
2026-04-28 10:55 22.69632 53.53393 34745 ft 517 kts 97°
2026-04-28 10:55 22.68649 53.61114 34736 ft 514 kts 97°
2026-04-28 10:56 22.67671 53.68773 34736 ft 513 kts 97°
2026-04-28 10:56 22.66694 53.76396 34743 ft 513 kts 97°
2026-04-28 10:57 22.65706 53.84077 34736 ft 513 kts 97°
2026-04-28 10:57 22.64722 53.91690 34734 ft 513 kts 97°
2026-04-28 10:58 22.63726 53.99372 34736 ft 513 kts 97°
2026-04-28 10:58 22.62728 54.07037 34736 ft 513 kts 98°
2026-04-28 10:59 22.61733 54.14652 34740 ft 514 kts 98°
2026-04-28 10:59 22.60726 54.22327 34735 ft 514 kts 97°
2026-04-28 11:00 22.59722 54.29958 34734 ft 511 kts 97°
2026-04-28 11:00 22.58720 54.37542 34741 ft 511 kts 97°
2026-04-28 11:01 22.57707 54.45172 34741 ft 511 kts 97°
2026-04-28 11:01 22.56697 54.52763 34749 ft 511 kts 98°
2026-04-28 11:02 22.55678 54.60386 34733 ft 512 kts 98°
2026-04-28 11:02 22.54657 54.68006 34735 ft 512 kts 98°
2026-04-28 11:03 22.53637 54.75580 34731 ft 511 kts 98°
2026-04-28 11:03 22.52606 54.83212 34739 ft 511 kts 98°
2026-04-28 11:04 22.51574 54.90829 34737 ft 511 kts 98°
2026-04-28 11:04 22.50543 54.98402 34734 ft 510 kts 98°
2026-04-28 11:05 22.49505 55.06008 34750 ft 509 kts 98°
2026-04-28 11:05 22.48467 55.13586 34746 ft 509 kts 98°
2026-04-28 11:06 22.47430 55.21141 34743 ft 509 kts 98°
2026-04-28 11:06 22.46385 55.28723 34755 ft 509 kts 98°
2026-04-28 11:07 22.46138 55.36274 34747 ft 504 kts 78°
2026-04-28 11:07 22.47101 55.39902 34750 ft 501 kts 63°
2026-04-28 11:07 22.48797 55.43177 34769 ft 496 kts 54°
2026-04-28 11:08 22.52506 55.49459 34760 ft 498 kts 54°
2026-04-28 11:08 22.56305 55.55729 34757 ft 498 kts 53°
2026-04-28 11:09 22.60124 55.61997 34766 ft 498 kts 53°
2026-04-28 11:09 22.63913 55.68220 34775 ft 498 kts 53°
2026-04-28 11:10 22.67727 55.74489 34774 ft 498 kts 53°
2026-04-28 11:10 22.71525 55.80741 34773 ft 498 kts 53°
2026-04-28 11:11 22.75338 55.87025 34785 ft 498 kts 53°
2026-04-28 11:11 22.79153 55.93319 34783 ft 500 kts 53°
2026-04-28 11:12 22.82956 55.99600 34789 ft 500 kts 53°
2026-04-28 11:12 22.86778 56.05920 34784 ft 500 kts 53°
2026-04-28 11:13 22.90565 56.12190 34785 ft 500 kts 53°
2026-04-28 11:13 22.94383 56.18519 34791 ft 500 kts 53°
2026-04-28 11:14 22.98191 56.24839 34800 ft 500 kts 53°
2026-04-28 11:14 23.01971 56.31140 34809 ft 500 kts 55°
2026-04-28 11:15 23.05592 56.37602 34801 ft 500 kts 55°
2026-04-28 11:15 23.09235 56.44079 34808 ft 501 kts 55°
2026-04-28 11:16 23.12841 56.50496 34816 ft 501 kts 55°
2026-04-28 11:16 23.16475 56.56967 34827 ft 501 kts 55°
2026-04-28 11:17 23.20099 56.63432 34800 ft 499 kts 55°
2026-04-28 11:17 23.21899 56.66642 34235 ft 496 kts 54°
2026-04-28 11:17 23.23710 56.69876 33079 ft 506 kts 54°
2026-04-28 11:17 23.25553 56.73174 32043 ft 513 kts 55°
2026-04-28 11:18 23.27392 56.76464 31281 ft 514 kts 56°
2026-04-28 11:18 23.29247 56.79784 30585 ft 513 kts 56°
2026-04-28 11:18 23.31114 56.83127 29723 ft 516 kts 56°
2026-04-28 11:18 23.32979 56.86500 28540 ft 523 kts 59°
2026-04-28 11:19 23.34373 56.90192 27456 ft 530 kts 75°
2026-04-28 11:19 23.35198 56.94045 26945 ft 522 kts 77°
2026-04-28 11:19 23.35969 56.97877 26381 ft 515 kts 77°
2026-04-28 11:19 23.36702 57.01682 25637 ft 513 kts 78°
2026-04-28 11:20 23.37421 57.05493 24945 ft 510 kts 77°
2026-04-28 11:20 23.38260 57.09223 24452 ft 502 kts 75°
2026-04-28 11:20 23.39074 57.12829 24101 ft 492 kts 76°
2026-04-28 11:20 23.39879 57.16446 23684 ft 490 kts 76°
2026-04-28 11:21 23.40677 57.20050 23240 ft 486 kts 76°
2026-04-28 11:21 23.41466 57.23619 22768 ft 481 kts 76°
2026-04-28 11:21 23.42239 57.27116 22359 ft 478 kts 76°
2026-04-28 11:21 23.43016 57.30633 21934 ft 475 kts 76°
2026-04-28 11:22 23.43786 57.34131 21533 ft 471 kts 76°
2026-04-28 11:22 23.44540 57.37551 21135 ft 468 kts 76°
2026-04-28 11:22 23.45296 57.40988 20711 ft 465 kts 76°
2026-04-28 11:22 23.46050 57.44418 20314 ft 462 kts 76°
2026-04-28 11:23 23.46795 57.47814 19924 ft 459 kts 76°
2026-04-28 11:23 23.47536 57.51194 19511 ft 456 kts 77°
2026-04-28 11:23 23.48216 57.54527 19098 ft 453 kts 83°
2026-04-28 11:23 23.48350 57.57950 18719 ft 449 kts 90°
2026-04-28 11:24 23.48392 57.61348 18355 ft 446 kts 90°
2026-04-28 11:24 23.48418 57.64679 17953 ft 443 kts 91°
2026-04-28 11:24 23.48433 57.68033 17532 ft 440 kts 91°
2026-04-28 11:24 23.48444 57.71362 17134 ft 438 kts 91°
2026-04-28 11:25 23.48454 57.74673 16754 ft 435 kts 91°
2026-04-28 11:25 23.48462 57.77975 16385 ft 433 kts 90°
2026-04-28 11:25 23.48470 57.81204 16027 ft 430 kts 90°
2026-04-28 11:25 23.48476 57.84444 15653 ft 427 kts 90°
2026-04-28 11:26 23.48483 57.87666 15297 ft 420 kts 90°
2026-04-28 11:26 23.48444 57.90836 14881 ft 415 kts 92°
2026-04-28 11:26 23.48394 57.93580 14582 ft 409 kts 91°
2026-04-28 11:26 23.48341 57.96657 14230 ft 403 kts 91°
2026-04-28 11:27 23.48290 57.99689 13874 ft 397 kts 91°
2026-04-28 11:27 23.48240 58.02670 13543 ft 391 kts 91°
2026-04-28 11:27 23.48190 58.05587 13171 ft 387 kts 91°
2026-04-28 11:27 23.48139 58.08499 12824 ft 381 kts 91°
2026-04-28 11:28 23.48089 58.11364 12496 ft 376 kts 91°
2026-04-28 11:28 23.48039 58.14194 12156 ft 371 kts 91°
2026-04-28 11:28 23.47990 58.16993 11827 ft 366 kts 91°
2026-04-28 11:28 23.47940 58.19747 11500 ft 361 kts 91°
2026-04-28 11:29 23.47891 58.22469 11213 ft 356 kts 90°
2026-04-28 11:29 23.47920 58.25139 10893 ft 351 kts 83°
2026-04-28 11:29 23.48171 58.27760 10565 ft 348 kts 83°
2026-04-28 11:29 23.48406 58.30383 10272 ft 343 kts 84°
2026-04-28 11:30 23.48623 58.32955 9989 ft 339 kts 84°
2026-04-28 11:30 23.49032 58.38023 9392 ft 330 kts 84°
2026-04-28 11:30 23.49224 58.40440 9106 ft 318 kts 84°
2026-04-28 11:31 23.49409 58.42790 8875 ft 304 kts 84°
2026-04-28 11:31 23.49588 58.45051 8640 ft 297 kts 84°
2026-04-28 11:31 23.49764 58.47301 8408 ft 298 kts 84°
2026-04-28 11:31 23.49951 58.49552 8135 ft 298 kts 83°
2026-04-28 11:32 23.50136 58.51801 7853 ft 297 kts 83°
2026-04-28 11:32 23.50319 58.54035 7607 ft 294 kts 83°
2026-04-28 11:32 23.50500 58.56251 7356 ft 292 kts 83°
2026-04-28 11:32 23.50678 58.58428 7100 ft 291 kts 83°
2026-04-28 11:33 23.50885 58.60628 6840 ft 291 kts 76°
2026-04-28 11:33 23.51652 58.62631 6554 ft 285 kts 49°
2026-04-28 11:33 23.53285 58.64160 6263 ft 271 kts 20°
2026-04-28 11:33 23.55047 58.64678 6012 ft 256 kts 358°
2026-04-28 11:34 23.56735 58.64441 5802 ft 243 kts 335°
2026-04-28 11:34 23.58087 58.63452 5552 ft 232 kts 307°
2026-04-28 11:34 23.58866 58.61953 5347 ft 224 kts 292°
2026-04-28 11:34 23.59394 58.60395 5150 ft 214 kts 287°
2026-04-28 11:35 23.59830 58.58876 4910 ft 206 kts 288°
2026-04-28 11:35 23.60248 58.57408 4630 ft 200 kts 284°
2026-04-28 11:35 23.60497 58.55939 4380 ft 192 kts 280°
2026-04-28 11:35 23.60665 58.54566 4135 ft 171 kts 277°
2026-04-28 11:36 23.60763 58.53340 3915 ft 157 kts 275°
2026-04-28 11:36 23.60832 58.52166 3684 ft 152 kts 278°
2026-04-28 11:36 23.60956 58.51045 3497 ft 149 kts 276°
2026-04-28 11:36 23.60973 58.49939 3300 ft 141 kts 271°
2026-04-28 11:37 23.60924 58.48872 3166 ft 141 kts 269°
2026-04-28 11:37 23.60848 58.47804 2976 ft 141 kts 268°
2026-04-28 11:37 23.60793 58.47099 2838 ft 142 kts 269°
2026-04-28 11:37 23.60681 58.45655 2599 ft 144 kts 268°
2026-04-28 11:38 23.60596 58.44573 2414 ft 143 kts 268°
2026-04-28 11:38 23.60510 58.43494 2224 ft 143 kts 268°
2026-04-28 11:38 23.60424 58.42411 2049 ft 144 kts 268°
2026-04-28 11:38 23.60336 58.41330 1848 ft 142 kts 270°
2026-04-28 11:39 23.60281 58.40628 1735 ft 140 kts 271°
2026-04-28 11:39 23.60196 58.39554 1571 ft 144 kts 270°
2026-04-28 11:39 23.60109 58.38464 1410 ft 143 kts 270°
2026-04-28 11:39 23.60026 58.37402 1253 ft 139 kts 269°
2026-04-28 11:40 23.59939 58.36335 1067 ft 143 kts 270°
2026-04-28 11:40 23.59853 58.35244 910 ft 144 kts 269°
2026-04-28 11:40 23.59767 58.34164 652 ft 142 kts 268°
2026-04-28 11:40 23.59680 58.33081 466 ft 145 kts 269°
2026-04-28 11:41 23.59597 58.31988 344 ft 149 kts 269°
2026-04-28 11:41 23.59506 58.30862 178 ft 147 kts 271°
2026-04-28 11:41 23.59417 58.29773 54 ft 137 kts 269°
2026-04-28 11:41 23.59344 58.28855 46 ft 99 kts 264°
2026-04-28 11:42 23.59304 58.28353 46 ft 40 kts 265°
2026-04-28 11:42 23.59333 58.28184 46 ft 20 kts 335°
2026-04-28 11:42 23.59388 58.28170 45 ft 1 kts 351°
2026-04-28 11:42 23.59392 58.28169 46 ft 0 kts 351°
2026-04-28 11:43 23.59404 58.28167 47 ft 3 kts 351°
2026-04-28 11:43 23.59415 58.28165 47 ft 0 kts 351°
2026-04-28 11:43 23.59449 58.28160 47 ft 8 kts 359°
2026-04-28 11:43 23.59491 58.28193 46 ft 9 kts 70°
2026-04-28 11:44 23.59501 58.28268 47 ft 11 kts 84°
2026-04-28 11:44 23.59508 58.28336 47 ft 7 kts 85°
2026-04-28 11:44 23.59513 58.28396 47 ft 5 kts 84°
2026-04-28 11:44 23.59515 58.28423 47 ft 4 kts 84°
2026-04-28 11:45 23.59516 58.28432 47 ft 2 kts 84°
2026-04-28 11:45 23.59518 58.28455 47 ft 5 kts 84°
2026-04-28 11:45 23.59520 58.28472 47 ft 1 kts 84°
2026-04-28 11:45 23.59521 58.28482 47 ft 3 kts 84°
2026-04-28 11:46 23.59524 58.28513 47 ft 5 kts 85°
2026-04-28 11:46 23.59524 58.28518 45 ft 0 kts 85°
2026-04-28 11:46 23.59524 58.28519 45 ft 0 kts 85°
2026-04-28 11:51 23.59524 58.28520 45 ft 1 kts 83°
2026-04-28 11:51 23.59531 58.28529 45 ft 2 kts 41°
2026-04-28 11:51 23.59550 58.28529 47 ft 4 kts 349°
2026-04-28 11:52 23.59587 58.28523 45 ft 6 kts 352°
2026-04-28 11:52 23.59637 58.28517 47 ft 8 kts 356°
2026-04-28 11:52 23.59701 58.28512 47 ft 9 kts 355°
2026-04-28 11:52 23.59746 58.28515 47 ft 3 kts 29°
2026-04-28 11:53 23.59768 58.28512 46 ft 4 kts 343°
2026-04-28 11:53 23.59806 58.28506 47 ft 6 kts 12°
2026-04-28 11:53 23.59826 58.28548 47 ft 7 kts 82°
2026-04-28 11:53 23.59830 58.28589 47 ft 5 kts 84°
2026-04-28 11:54 23.59833 58.28614 47 ft 2 kts 84°
2026-04-28 11:54 23.59833 58.28624 47 ft 1 kts 84°
2026-04-28 11:54 23.59834 58.28631 47 ft 1 kts 84°
2026-04-28 11:54 23.59834 58.28633 47 ft 0 kts 84°